Time,TemperatureF,DewpointF,PressureIn,WindDirection,WindDirectionDegrees,WindSpeedMPH,WindSpeedGustMPH,Humidity,HourlyPrecipIn,Conditions,Clouds,dailyrainin,SoftwareType,DateUTC
2013-05-18 00:01:00,48.7,40.5,30.19,East,90,1.6,1.6,73,0.00,,,0.00,meteobridge,2013-05-18 04:01:00,
2013-05-18 00:02:00,48.7,40.5,30.19,West,270,0.7,1.6,73,0.00,,,0.00,meteobridge,2013-05-18 04:02:00,
2013-05-18 00:03:00,48.7,40.5,30.19,North,0,0.0,1.6,73,0.00,,,0.00,meteobridge,2013-05-18 04:03:00,
2013-05-18 00:06:00,48.9,41.0,30.19,North,0,0.0,0.0,74,0.00,,,0.00,meteobridge,2013-05-18 04:06:00,
2013-05-18 00:11:00,48.2,40.3,30.19,North,0,0.0,0.7,74,0.00,,,0.00,meteobridge,2013-05-18 04:11:00,
2013-05-18 00:17:00,48.2,40.3,30.19,North,0,0.0,0.0,74,0.00,,,0.00,meteobridge,2013-05-18 04:17:00,
2013-05-18 00:23:00,48.6,40.6,30.19,North,0,0.0,0.0,74,0.00,,,0.00,meteobridge,2013-05-18 04:23:00,
2013-05-18 00:28:00,48.0,40.5,30.19,North,0,0.0,0.0,75,0.00,,,0.00,meteobridge,2013-05-18 04:28:00,
2013-05-18 00:34:00,47.8,40.3,30.19,North,0,0.0,0.0,75,0.00,,,0.00,meteobridge,2013-05-18 04:34:00,
2013-05-18 00:40:00,47.5,40.3,30.19,North,0,0.0,0.0,76,0.00,,,0.00,meteobridge,2013-05-18 04:40:00,
2013-05-18 00:45:00,46.9,39.7,30.20,North,0,0.0,0.0,76,0.00,,,0.00,meteobridge,2013-05-18 04:45:00,
2013-05-18 00:51:00,46.9,40.1,30.19,North,0,0.0,0.0,77,0.00,,,0.00,meteobridge,2013-05-18 04:51:00,
2013-05-18 00:57:00,46.8,39.9,30.20,East,90,0.0,0.0,77,0.00,,,0.00,meteobridge,2013-05-18 04:57:00,
2013-05-18 01:02:00,46.8,40.3,30.20,North,0,0.0,0.0,78,0.00,,,0.00,meteobridge,2013-05-18 05:02:00,
2013-05-18 01:08:00,46.4,39.9,30.20,North,0,0.0,0.0,78,0.00,,,0.00,meteobridge,2013-05-18 05:08:00,
2013-05-18 01:13:00,46.2,40.1,30.19,East,90,0.0,0.0,79,0.00,,,0.00,meteobridge,2013-05-18 05:13:00,
2013-05-18 01:19:00,46.6,40.1,30.19,North,0,0.0,0.0,78,0.00,,,0.00,meteobridge,2013-05-18 05:19:00,
2013-05-18 01:25:00,46.6,40.1,30.19,North,0,0.0,0.0,78,0.00,,,0.00,meteobridge,2013-05-18 05:25:00,
2013-05-18 01:30:00,46.4,39.9,30.19,North,0,1.6,1.6,78,0.00,,,0.00,meteobridge,2013-05-18 05:30:00,
2013-05-18 01:36:00,46.4,39.9,30.19,North,0,0.0,0.7,78,0.00,,,0.00,meteobridge,2013-05-18 05:36:00,
2013-05-18 01:42:00,46.2,40.1,30.20,North,0,0.0,0.7,79,0.00,,,0.00,meteobridge,2013-05-18 05:42:00,
2013-05-18 01:47:00,46.2,40.1,30.20,North,0,1.6,1.6,79,0.00,,,0.00,meteobridge,2013-05-18 05:47:00,
2013-05-18 01:53:00,45.5,39.7,30.20,North,0,0.0,0.0,80,0.00,,,0.00,meteobridge,2013-05-18 05:53:00,
2013-05-18 01:59:00,45.3,39.6,30.20,North,0,0.0,0.0,80,0.00,,,0.00,meteobridge,2013-05-18 05:59:00,
2013-05-18 02:04:00,45.3,39.6,30.20,North,0,0.0,0.0,80,0.00,,,0.00,meteobridge,2013-05-18 06:04:00,
2013-05-18 02:10:00,45.1,39.7,30.20,East,90,0.7,0.7,81,0.00,,,0.00,meteobridge,2013-05-18 06:10:00,
2013-05-18 02:15:00,45.3,39.9,30.20,East,90,0.7,0.7,81,0.00,,,0.00,meteobridge,2013-05-18 06:15:00,
2013-05-18 02:21:00,45.0,39.6,30.20,North,0,0.0,0.0,81,0.00,,,0.00,meteobridge,2013-05-18 06:21:00,
2013-05-18 02:27:00,44.6,39.2,30.20,West,270,1.6,1.6,81,0.00,,,0.00,meteobridge,2013-05-18 06:27:00,
2013-05-18 02:32:00,44.6,39.4,30.20,North,0,0.0,1.6,82,0.00,,,0.00,meteobridge,2013-05-18 06:32:00,
2013-05-18 02:38:00,44.6,39.4,30.20,East,90,1.6,1.6,82,0.00,,,0.00,meteobridge,2013-05-18 06:38:00,
2013-05-18 02:44:00,44.6,39.4,30.20,North,0,0.0,0.0,82,0.00,,,0.00,meteobridge,2013-05-18 06:44:00,
2013-05-18 02:49:00,44.4,39.6,30.20,North,0,0.0,0.0,83,0.00,,,0.00,meteobridge,2013-05-18 06:49:00,
2013-05-18 02:55:00,44.2,39.4,30.20,North,0,0.0,0.0,83,0.00,,,0.00,meteobridge,2013-05-18 06:55:00,
2013-05-18 03:01:00,44.4,39.6,30.20,West,270,0.0,1.6,83,0.00,,,0.00,meteobridge,2013-05-18 07:01:00,
2013-05-18 03:06:00,43.9,39.0,30.20,South,180,0.0,0.0,83,0.00,,,0.00,meteobridge,2013-05-18 07:06:00,
2013-05-18 03:12:00,44.2,39.4,30.21,West,270,0.0,0.7,83,0.00,,,0.00,meteobridge,2013-05-18 07:12:00,
2013-05-18 03:18:00,43.7,38.8,30.21,West,270,0.0,0.0,83,0.00,,,0.00,meteobridge,2013-05-18 07:18:00,
2013-05-18 03:23:00,43.7,39.2,30.21,West,270,0.0,0.0,84,0.00,,,0.00,meteobridge,2013-05-18 07:23:00,
2013-05-18 03:29:00,43.3,38.5,30.21,West,270,0.0,0.0,83,0.00,,,0.00,meteobridge,2013-05-18 07:29:00,
2013-05-18 03:34:00,43.7,39.2,30.21,West,270,0.0,0.0,84,0.00,,,0.00,meteobridge,2013-05-18 07:34:00,
2013-05-18 03:40:00,43.3,38.8,30.22,West,270,0.0,0.0,84,0.00,,,0.00,meteobridge,2013-05-18 07:40:00,
2013-05-18 03:46:00,43.2,38.7,30.22,West,270,0.0,0.0,84,0.00,,,0.00,meteobridge,2013-05-18 07:46:00,
2013-05-18 03:51:00,43.0,38.5,30.22,West,270,0.0,0.0,84,0.00,,,0.00,meteobridge,2013-05-18 07:51:00,
2013-05-18 03:57:00,43.0,38.5,30.22,West,270,0.0,0.0,84,0.00,,,0.00,meteobridge,2013-05-18 07:57:00,
2013-05-18 04:03:00,43.0,38.5,30.22,West,270,0.0,0.0,84,0.00,,,0.00,meteobridge,2013-05-18 08:03:00,
2013-05-18 04:08:00,43.0,38.8,30.22,North,0,0.0,0.0,85,0.00,,,0.00,meteobridge,2013-05-18 08:08:00,
2013-05-18 04:14:00,43.0,38.8,30.22,North,0,0.0,0.0,85,0.00,,,0.00,meteobridge,2013-05-18 08:14:00,
2013-05-18 04:20:00,42.8,38.7,30.22,North,0,0.0,0.0,85,0.00,,,0.00,meteobridge,2013-05-18 08:20:00,
2013-05-18 04:25:00,42.8,38.7,30.22,North,0,0.0,0.0,85,0.00,,,0.00,meteobridge,2013-05-18 08:25:00,
2013-05-18 04:31:00,42.8,38.7,30.22,North,0,0.0,1.6,85,0.00,,,0.00,meteobridge,2013-05-18 08:31:00,
2013-05-18 04:36:00,42.6,38.7,30.22,East,90,0.0,0.0,86,0.00,,,0.00,meteobridge,2013-05-18 08:36:00,
2013-05-18 04:42:00,42.6,39.0,30.22,North,0,0.0,0.0,87,0.00,,,0.00,meteobridge,2013-05-18 08:42:00,
2013-05-18 04:48:00,42.4,38.8,30.23,North,0,0.0,0.0,87,0.00,,,0.00,meteobridge,2013-05-18 08:48:00,
2013-05-18 04:53:00,42.1,38.1,30.22,North,0,0.0,0.7,86,0.00,,,0.00,meteobridge,2013-05-18 08:53:00,
2013-05-18 04:59:00,42.1,38.1,30.23,East,90,0.7,0.7,86,0.00,,,0.00,meteobridge,2013-05-18 08:59:00,
2013-05-18 05:05:00,42.1,38.5,30.23,West,270,2.2,2.2,87,0.00,,,0.00,meteobridge,2013-05-18 09:05:00,
2013-05-18 05:10:00,42.1,38.5,30.23,North,0,0.0,0.7,87,0.00,,,0.00,meteobridge,2013-05-18 09:10:00,
2013-05-18 05:16:00,41.9,38.3,30.23,West,270,0.0,1.6,87,0.00,,,0.00,meteobridge,2013-05-18 09:16:00,
2013-05-18 05:22:00,41.7,38.1,30.24,North,0,0.0,0.0,87,0.00,,,0.00,meteobridge,2013-05-18 09:22:00,
2013-05-18 05:27:00,41.9,38.3,30.24,North,0,0.0,0.0,87,0.00,,,0.00,meteobridge,2013-05-18 09:27:00,
2013-05-18 05:33:00,41.9,38.3,30.24,North,0,0.0,2.2,87,0.00,,,0.00,meteobridge,2013-05-18 09:33:00,
2013-05-18 05:38:00,41.7,38.1,30.24,North,0,0.0,0.0,87,0.00,,,0.00,meteobridge,2013-05-18 09:38:00,
2013-05-18 05:44:00,41.5,37.9,30.24,North,0,0.0,0.0,87,0.00,,,0.00,meteobridge,2013-05-18 09:44:00,
2013-05-18 05:50:00,41.5,37.9,30.24,North,0,0.0,0.0,87,0.00,,,0.00,meteobridge,2013-05-18 09:50:00,
2013-05-18 05:55:00,41.7,38.1,30.25,North,0,0.0,0.7,87,0.00,,,0.00,meteobridge,2013-05-18 09:55:00,
2013-05-18 06:01:00,41.9,38.3,30.25,North,0,0.7,0.7,87,0.00,,,0.00,meteobridge,2013-05-18 10:01:00,
2013-05-18 06:07:00,42.1,38.5,30.25,North,0,0.0,1.6,87,0.00,,,0.00,meteobridge,2013-05-18 10:07:00,
2013-05-18 06:12:00,42.3,38.7,30.25,North,0,0.0,1.6,87,0.00,,,0.00,meteobridge,2013-05-18 10:12:00,
2013-05-18 06:18:00,42.3,38.7,30.25,West,270,0.0,0.0,87,0.00,,,0.00,meteobridge,2013-05-18 10:18:00,
2013-05-18 06:24:00,42.4,38.8,30.25,North,0,1.6,1.6,87,0.00,,,0.00,meteobridge,2013-05-18 10:24:00,
2013-05-18 06:29:00,42.8,38.7,30.25,North,0,0.7,0.7,85,0.00,,,0.00,meteobridge,2013-05-18 10:29:00,
2013-05-18 06:35:00,43.3,39.2,30.26,North,0,1.6,2.2,85,0.00,,,0.00,meteobridge,2013-05-18 10:35:00,
2013-05-18 06:41:00,43.7,39.2,30.26,NW,315,2.2,2.2,84,0.00,,,0.00,meteobridge,2013-05-18 10:41:00,
2013-05-18 06:46:00,44.1,39.6,30.25,North,0,2.2,2.2,84,0.00,,,0.00,meteobridge,2013-05-18 10:46:00,
2013-05-18 06:52:00,44.6,39.4,30.26,North,0,2.2,2.2,82,0.00,,,0.00,meteobridge,2013-05-18 10:52:00,
2013-05-18 06:57:00,45.1,39.9,30.26,North,0,2.2,2.2,82,0.00,,,0.00,meteobridge,2013-05-18 10:57:00,
2013-05-18 07:03:00,45.3,39.9,30.26,North,0,3.8,3.8,81,0.00,,,0.00,meteobridge,2013-05-18 11:03:00,
2013-05-18 07:09:00,45.5,39.7,30.26,West,270,3.1,3.1,80,0.00,,,0.00,meteobridge,2013-05-18 11:09:00,
2013-05-18 07:14:00,46.0,39.6,30.27,North,0,2.2,3.1,78,0.00,,,0.00,meteobridge,2013-05-18 11:14:00,
2013-05-18 07:20:00,46.8,39.9,30.27,North,0,1.6,1.6,77,0.00,,,0.00,meteobridge,2013-05-18 11:20:00,
2013-05-18 07:26:00,47.3,40.1,30.27,North,0,1.6,2.2,76,0.00,,,0.00,meteobridge,2013-05-18 11:26:00,
2013-05-18 07:31:00,48.7,40.8,30.27,NW,315,0.0,2.2,74,0.00,,,0.00,meteobridge,2013-05-18 11:31:00,
2013-05-18 07:37:00,49.1,40.8,30.27,East,90,1.6,2.2,73,0.00,,,0.00,meteobridge,2013-05-18 11:37:00,
2013-05-18 07:43:00,49.6,41.0,30.27,West,270,1.6,2.2,72,0.00,,,0.00,meteobridge,2013-05-18 11:43:00,
2013-05-18 07:48:00,50.0,41.0,30.27,North,0,2.2,3.1,71,0.00,,,0.00,meteobridge,2013-05-18 11:48:00,
2013-05-18 07:54:00,50.9,41.5,30.27,West,270,1.6,1.6,70,0.00,,,0.00,meteobridge,2013-05-18 11:54:00,
2013-05-18 07:59:00,51.3,41.4,30.27,North,0,1.6,2.2,69,0.00,,,0.00,meteobridge,2013-05-18 11:59:00,
2013-05-18 08:05:00,53.2,43.0,30.27,North,0,0.0,0.0,68,0.00,,,0.00,meteobridge,2013-05-18 12:05:00,
2013-05-18 08:10:00,54.3,43.2,30.27,North,0,0.0,0.0,66,0.00,,,0.00,meteobridge,2013-05-18 12:10:00,
2013-05-18 08:16:00,55.2,44.1,30.27,South,180,0.0,0.0,66,0.00,,,0.00,meteobridge,2013-05-18 12:16:00,
2013-05-18 08:21:00,56.1,44.6,30.28,East,90,0.0,0.7,65,0.00,,,0.00,meteobridge,2013-05-18 12:21:00,
2013-05-18 08:27:00,54.9,42.4,30.28,South,180,1.6,1.6,63,0.00,,,0.00,meteobridge,2013-05-18 12:27:00,
2013-05-18 08:33:00,56.3,43.9,30.28,North,0,1.6,1.6,63,0.00,,,0.00,meteobridge,2013-05-18 12:33:00,
2013-05-18 08:38:00,56.5,43.2,30.28,North,0,0.0,0.0,61,0.00,,,0.00,meteobridge,2013-05-18 12:38:00,
2013-05-18 08:44:00,57.2,43.5,30.28,South,180,0.0,0.0,60,0.00,,,0.00,meteobridge,2013-05-18 12:44:00,
2013-05-18 08:50:00,57.4,42.8,30.28,South,180,0.0,1.6,58,0.00,,,0.00,meteobridge,2013-05-18 12:50:00,
2013-05-18 08:55:00,59.2,43.9,30.27,South,180,0.0,0.7,57,0.00,,,0.00,meteobridge,2013-05-18 12:55:00,
2013-05-18 09:01:00,59.2,43.9,30.28,West,270,0.0,0.7,57,0.00,,,0.00,meteobridge,2013-05-18 13:01:00,
2013-05-18 09:06:00,59.0,43.3,30.27,East,90,1.6,2.2,56,0.00,,,0.00,meteobridge,2013-05-18 13:06:00,
2013-05-18 09:12:00,59.0,43.3,30.28,South,180,0.0,1.6,56,0.00,,,0.00,meteobridge,2013-05-18 13:12:00,
2013-05-18 09:18:00,59.7,44.4,30.27,South,180,1.6,1.6,57,0.00,,,0.00,meteobridge,2013-05-18 13:18:00,
2013-05-18 09:23:00,61.3,45.0,30.27,West,270,0.7,1.6,55,0.00,,,0.00,meteobridge,2013-05-18 13:23:00,
2013-05-18 09:29:00,59.9,43.2,30.27,South,180,2.2,2.2,54,0.00,,,0.00,meteobridge,2013-05-18 13:29:00,
2013-05-18 09:35:00,61.2,43.9,30.28,SW,225,2.2,2.2,53,0.00,,,0.00,meteobridge,2013-05-18 13:35:00,
2013-05-18 09:40:00,61.5,44.2,30.28,East,90,3.8,3.8,53,0.00,,,0.00,meteobridge,2013-05-18 13:40:00,
2013-05-18 09:46:00,60.8,44.1,30.28,SE,135,5.4,5.4,54,0.00,,,0.00,meteobridge,2013-05-18 13:46:00,
2013-05-18 09:52:00,61.7,45.0,30.28,SW,225,3.1,3.1,54,0.00,,,0.00,meteobridge,2013-05-18 13:52:00,
2013-05-18 09:57:00,62.6,44.8,30.27,North,0,3.1,5.4,52,0.00,,,0.00,meteobridge,2013-05-18 13:57:00,
2013-05-18 10:03:00,62.4,45.1,30.27,South,180,3.8,3.8,53,0.00,,,0.00,meteobridge,2013-05-18 14:03:00,
2013-05-18 10:08:00,63.9,46.4,30.27,East,90,0.7,2.2,53,0.00,,,0.00,meteobridge,2013-05-18 14:08:00,
2013-05-18 10:14:00,63.9,45.3,30.27,South,180,3.8,3.8,51,0.00,,,0.00,meteobridge,2013-05-18 14:14:00,
2013-05-18 10:19:00,62.6,44.8,30.27,South,180,2.2,3.1,52,0.00,,,0.00,meteobridge,2013-05-18 14:19:00,
2013-05-18 10:25:00,64.9,46.4,30.27,South,180,4.5,4.5,51,0.00,,,0.00,meteobridge,2013-05-18 14:25:00,
2013-05-18 10:30:00,64.9,46.9,30.27,SW,225,1.6,2.2,52,0.00,,,0.00,meteobridge,2013-05-18 14:30:00,
2013-05-18 10:36:00,64.8,45.1,30.27,South,180,4.5,4.5,49,0.00,,,0.00,meteobridge,2013-05-18 14:36:00,
2013-05-18 10:42:00,65.3,45.7,30.27,South,180,3.8,4.5,49,0.00,,,0.00,meteobridge,2013-05-18 14:42:00,
2013-05-18 10:47:00,64.6,44.4,30.27,SE,135,3.8,5.4,48,0.00,,,0.00,meteobridge,2013-05-18 14:47:00,
2013-05-18 10:53:00,64.9,44.8,30.27,SW,225,2.2,5.4,48,0.00,,,0.00,meteobridge,2013-05-18 14:53:00,
2013-05-18 10:58:00,66.6,45.1,30.27,East,90,4.5,4.5,46,0.00,,,0.00,meteobridge,2013-05-18 14:58:00,
2013-05-18 11:04:00,67.6,47.3,30.27,North,0,1.6,3.8,48,0.00,,,0.00,meteobridge,2013-05-18 15:04:00,
2013-05-18 11:10:00,70.0,47.1,30.27,South,180,3.1,3.1,44,0.00,,,0.00,meteobridge,2013-05-18 15:10:00,
2013-05-18 11:15:00,69.3,46.9,30.27,SE,135,4.5,4.5,45,0.00,,,0.00,meteobridge,2013-05-18 15:15:00,
2013-05-18 11:21:00,65.8,45.0,30.27,South,180,3.1,4.5,47,0.00,,,0.00,meteobridge,2013-05-18 15:21:00,
2013-05-18 11:27:00,68.0,45.9,30.27,South,180,1.6,3.8,45,0.00,,,0.00,meteobridge,2013-05-18 15:27:00,
2013-05-18 11:32:00,71.1,48.6,30.27,NE,45,2.2,2.2,45,0.00,,,0.00,meteobridge,2013-05-18 15:32:00,
2013-05-18 11:38:00,70.0,46.4,30.27,North,0,1.6,3.8,43,0.00,,,0.00,meteobridge,2013-05-18 15:38:00,
2013-05-18 11:44:00,71.2,47.7,30.26,East,90,0.7,1.6,43,0.00,,,0.00,meteobridge,2013-05-18 15:44:00,
2013-05-18 11:49:00,71.1,46.8,30.26,East,90,2.2,2.2,42,0.00,,,0.00,meteobridge,2013-05-18 15:49:00,
2013-05-18 11:55:00,71.6,46.6,30.26,North,0,2.2,3.1,41,0.00,,,0.00,meteobridge,2013-05-18 15:55:00,
2013-05-18 12:01:00,70.7,46.4,30.26,NE,45,3.8,6.9,42,0.00,,,0.00,meteobridge,2013-05-18 16:01:00,
2013-05-18 12:06:00,72.1,45.9,30.25,SW,225,3.1,3.1,39,0.00,,,0.00,meteobridge,2013-05-18 16:06:00,
2013-05-18 12:12:00,70.2,44.8,30.25,South,180,2.2,6.0,40,0.00,,,0.00,meteobridge,2013-05-18 16:12:00,
2013-05-18 12:17:00,72.7,47.7,30.25,SW,225,4.5,4.5,41,0.00,,,0.00,meteobridge,2013-05-18 16:17:00,
2013-05-18 12:23:00,74.5,49.8,30.25,SE,135,4.5,4.5,42,0.00,,,0.00,meteobridge,2013-05-18 16:23:00,
2013-05-18 12:28:00,73.4,48.2,30.25,South,180,3.1,3.1,41,0.00,,,0.00,meteobridge,2013-05-18 16:28:00,
2013-05-18 12:34:00,72.1,47.1,30.25,West,270,1.6,3.1,41,0.00,,,0.00,meteobridge,2013-05-18 16:34:00,
2013-05-18 12:39:00,72.1,47.1,30.25,West,270,1.6,3.8,41,0.00,,,0.00,meteobridge,2013-05-18 16:39:00,
2013-05-18 12:45:00,74.8,48.9,30.25,East,90,0.7,0.7,40,0.00,,,0.00,meteobridge,2013-05-18 16:45:00,
2013-05-18 12:51:00,71.6,46.6,30.25,North,0,2.2,7.6,41,0.00,,,0.00,meteobridge,2013-05-18 16:51:00,
2013-05-18 12:56:00,73.0,45.9,30.24,SE,135,3.1,5.4,38,0.00,,,0.00,meteobridge,2013-05-18 16:56:00,
2013-05-18 13:02:00,74.5,48.6,30.24,North,0,0.0,2.2,40,0.00,,,0.00,meteobridge,2013-05-18 17:02:00,
2013-05-18 13:08:00,75.2,48.6,30.24,NE,45,2.2,2.2,39,0.00,,,0.00,meteobridge,2013-05-18 17:08:00,
2013-05-18 13:13:00,75.6,48.9,30.24,North,0,0.0,0.0,39,0.00,,,0.00,meteobridge,2013-05-18 17:13:00,
2013-05-18 13:19:00,73.4,46.9,30.24,SW,225,5.4,5.4,39,0.00,,,0.00,meteobridge,2013-05-18 17:19:00,
2013-05-18 13:24:00,72.0,44.2,30.24,East,90,1.6,3.1,37,0.00,,,0.00,meteobridge,2013-05-18 17:24:00,
2013-05-18 13:30:00,74.7,47.3,30.24,South,180,3.1,3.8,38,0.00,,,0.00,meteobridge,2013-05-18 17:30:00,
2013-05-18 13:36:00,75.2,47.1,30.23,SE,135,0.7,2.2,37,0.00,,,0.00,meteobridge,2013-05-18 17:36:00,
2013-05-18 13:41:00,73.0,45.9,30.23,East,90,6.9,6.9,38,0.00,,,0.00,meteobridge,2013-05-18 17:41:00,
2013-05-18 13:47:00,72.7,43.5,30.24,West,270,3.1,5.4,35,0.00,,,0.00,meteobridge,2013-05-18 17:47:00,
2013-05-18 13:53:00,71.1,43.5,30.23,SE,135,2.2,3.1,37,0.00,,,0.00,meteobridge,2013-05-18 17:53:00,
2013-05-18 13:58:00,73.2,46.0,30.23,SE,135,6.0,6.0,38,0.00,,,0.00,meteobridge,2013-05-18 17:58:00,
2013-05-18 14:04:00,71.2,45.0,30.23,North,0,3.1,4.5,39,0.00,,,0.00,meteobridge,2013-05-18 18:04:00,
2013-05-18 14:10:00,70.7,46.4,30.23,South,180,6.0,6.9,42,0.00,,,0.00,meteobridge,2013-05-18 18:10:00,
2013-05-18 14:15:00,72.0,46.9,30.23,East,90,3.1,3.1,41,0.00,,,0.00,meteobridge,2013-05-18 18:15:00,
2013-05-18 14:21:00,70.2,44.1,30.23,West,270,3.8,6.0,39,0.00,,,0.00,meteobridge,2013-05-18 18:21:00,
2013-05-18 14:26:00,70.3,45.5,30.23,West,270,4.5,4.5,41,0.00,,,0.00,meteobridge,2013-05-18 18:26:00,
2013-05-18 14:32:00,69.6,45.0,30.23,North,0,5.4,9.2,41,0.00,,,0.00,meteobridge,2013-05-18 18:32:00,
2013-05-18 14:38:00,69.1,45.7,30.23,South,180,5.4,9.8,43,0.00,,,0.00,meteobridge,2013-05-18 18:38:00,
2013-05-18 14:43:00,69.1,45.7,30.23,North,0,3.8,9.2,43,0.00,,,0.00,meteobridge,2013-05-18 18:43:00,
2013-05-18 14:49:00,69.6,46.8,30.23,SE,135,11.4,11.4,44,0.00,,,0.00,meteobridge,2013-05-18 18:49:00,
2013-05-18 14:55:00,68.9,46.0,30.23,SE,135,7.6,9.2,44,0.00,,,0.00,meteobridge,2013-05-18 18:55:00,
2013-05-18 15:00:00,69.1,46.2,30.23,East,90,10.7,10.7,44,0.00,,,0.00,meteobridge,2013-05-18 19:00:00,
2013-05-18 15:06:00,68.4,46.2,30.23,SW,225,7.6,10.7,45,0.00,,,0.00,meteobridge,2013-05-18 19:06:00,
2013-05-18 15:12:00,67.8,46.2,30.23,South,180,8.3,13.6,46,0.00,,,0.00,meteobridge,2013-05-18 19:12:00,
2013-05-18 15:17:00,67.6,47.3,30.23,West,270,6.9,7.6,48,0.00,,,0.00,meteobridge,2013-05-18 19:17:00,
2013-05-18 15:23:00,67.5,46.6,30.23,South,180,10.7,10.7,47,0.00,,,0.00,meteobridge,2013-05-18 19:23:00,
2013-05-18 15:28:00,67.8,47.5,30.23,South,180,9.2,9.2,48,0.00,,,0.00,meteobridge,2013-05-18 19:28:00,
2013-05-18 15:34:00,67.5,47.1,30.23,SW,225,8.3,9.2,48,0.00,,,0.00,meteobridge,2013-05-18 19:34:00,
2013-05-18 15:40:00,67.5,47.1,30.24,SE,135,5.4,6.9,48,0.00,,,0.00,meteobridge,2013-05-18 19:40:00,
2013-05-18 15:45:00,66.9,47.1,30.23,SW,225,10.7,10.7,49,0.00,,,0.00,meteobridge,2013-05-18 19:45:00,
2013-05-18 15:51:00,67.3,46.9,30.24,East,90,6.0,13.6,48,0.00,,,0.00,meteobridge,2013-05-18 19:51:00,
2013-05-18 15:57:00,66.7,46.9,30.23,SE,135,9.2,9.2,49,0.00,,,0.00,meteobridge,2013-05-18 19:57:00,
2013-05-18 16:02:00,66.6,46.8,30.24,South,180,9.8,9.8,49,0.00,,,0.00,meteobridge,2013-05-18 20:02:00,
2013-05-18 16:08:00,66.7,46.9,30.24,South,180,9.8,9.8,49,0.00,,,0.00,meteobridge,2013-05-18 20:08:00,
2013-05-18 16:14:00,66.4,46.6,30.24,South,180,2.2,7.6,49,0.00,,,0.00,meteobridge,2013-05-18 20:14:00,
2013-05-18 16:19:00,66.2,45.9,30.24,SW,225,3.1,8.3,48,0.00,,,0.00,meteobridge,2013-05-18 20:19:00,
2013-05-18 16:25:00,66.0,46.4,30.24,East,90,12.1,12.1,49,0.00,,,0.00,meteobridge,2013-05-18 20:25:00,
2013-05-18 16:31:00,65.8,45.7,30.24,SE,135,10.7,10.7,48,0.00,,,0.00,meteobridge,2013-05-18 20:31:00,
2013-05-18 16:36:00,65.5,45.3,30.24,SE,135,6.9,7.6,48,0.00,,,0.00,meteobridge,2013-05-18 20:36:00,
2013-05-18 16:42:00,65.1,45.0,30.25,East,90,10.7,10.7,48,0.00,,,0.00,meteobridge,2013-05-18 20:42:00,
2013-05-18 16:47:00,64.9,44.8,30.25,SW,225,6.0,13.0,48,0.00,,,0.00,meteobridge,2013-05-18 20:47:00,
2013-05-18 16:53:00,64.9,45.3,30.25,SE,135,9.2,12.1,49,0.00,,,0.00,meteobridge,2013-05-18 20:53:00,
2013-05-18 16:59:00,65.3,46.2,30.25,SW,225,10.7,10.7,50,0.00,,,0.00,meteobridge,2013-05-18 20:59:00,
2013-05-18 17:04:00,64.6,46.0,30.26,South,180,3.1,7.6,51,0.00,,,0.00,meteobridge,2013-05-18 21:04:00,
2013-05-18 17:10:00,64.9,46.9,30.26,South,180,5.4,6.9,52,0.00,,,0.00,meteobridge,2013-05-18 21:10:00,
2013-05-18 17:16:00,64.2,46.2,30.26,SW,225,17.4,17.4,52,0.00,,,0.00,meteobridge,2013-05-18 21:16:00,
2013-05-18 17:21:00,64.0,46.6,30.26,SW,225,10.7,12.1,53,0.00,,,0.00,meteobridge,2013-05-18 21:21:00,
2013-05-18 17:27:00,63.7,46.2,30.26,SW,225,6.9,13.6,53,0.00,,,0.00,meteobridge,2013-05-18 21:27:00,
2013-05-18 17:33:00,64.8,47.7,30.26,North,0,3.8,4.5,54,0.00,,,0.00,meteobridge,2013-05-18 21:33:00,
2013-05-18 17:38:00,64.6,46.6,30.26,SE,135,9.2,13.0,52,0.00,,,0.00,meteobridge,2013-05-18 21:38:00,
2013-05-18 17:44:00,64.6,46.6,30.27,SE,135,4.5,4.5,52,0.00,,,0.00,meteobridge,2013-05-18 21:44:00,
2013-05-18 17:49:00,62.8,45.3,30.26,SE,135,9.2,13.6,53,0.00,,,0.00,meteobridge,2013-05-18 21:49:00,
2013-05-18 17:55:00,63.0,45.5,30.26,North,0,6.9,6.9,53,0.00,,,0.00,meteobridge,2013-05-18 21:55:00,
2013-05-18 18:01:00,62.1,45.7,30.26,SE,135,9.2,12.1,55,0.00,,,0.00,meteobridge,2013-05-18 22:01:00,
2013-05-18 18:06:00,61.9,45.5,30.26,South,180,6.0,9.2,55,0.00,,,0.00,meteobridge,2013-05-18 22:06:00,
2013-05-18 18:12:00,62.1,45.7,30.27,South,180,9.2,9.2,55,0.00,,,0.00,meteobridge,2013-05-18 22:12:00,
2013-05-18 18:18:00,61.7,45.0,30.27,South,180,4.5,12.1,54,0.00,,,0.00,meteobridge,2013-05-18 22:18:00,
2013-05-18 18:23:00,61.7,45.3,30.27,West,270,4.5,7.6,55,0.00,,,0.00,meteobridge,2013-05-18 22:23:00,
2013-05-18 18:29:00,62.8,45.9,30.27,South,180,2.2,2.2,54,0.00,,,0.00,meteobridge,2013-05-18 22:29:00,
2013-05-18 18:35:00,62.1,45.7,30.27,SW,225,7.6,8.3,55,0.00,,,0.00,meteobridge,2013-05-18 22:35:00,
2013-05-18 18:40:00,62.1,45.7,30.27,South,180,3.8,8.3,55,0.00,,,0.00,meteobridge,2013-05-18 22:40:00,
2013-05-18 18:46:00,62.1,45.7,30.27,West,270,3.8,7.6,55,0.00,,,0.00,meteobridge,2013-05-18 22:46:00,
2013-05-18 18:51:00,61.7,45.3,30.27,East,90,1.6,6.0,55,0.00,,,0.00,meteobridge,2013-05-18 22:51:00,
2013-05-18 18:57:00,61.7,45.9,30.27,SW,225,2.2,2.2,56,0.00,,,0.00,meteobridge,2013-05-18 22:57:00,
2013-05-18 19:03:00,61.3,45.5,30.27,South,180,1.6,8.3,56,0.00,,,0.00,meteobridge,2013-05-18 23:03:00,
2013-05-18 19:08:00,61.0,45.7,30.27,West,270,2.2,3.8,57,0.00,,,0.00,meteobridge,2013-05-18 23:08:00,
2013-05-18 19:14:00,61.0,46.0,30.27,East,90,5.4,5.4,58,0.00,,,0.00,meteobridge,2013-05-18 23:14:00,
2013-05-18 19:20:00,61.0,46.6,30.28,SW,225,6.0,6.9,59,0.00,,,0.00,meteobridge,2013-05-18 23:20:00,
2013-05-18 19:25:00,60.8,46.8,30.28,SE,135,6.0,6.0,60,0.00,,,0.00,meteobridge,2013-05-18 23:25:00,
2013-05-18 19:31:00,60.6,47.1,30.28,West,270,3.1,3.1,61,0.00,,,0.00,meteobridge,2013-05-18 23:31:00,
2013-05-18 19:37:00,60.3,47.1,30.28,NE,45,3.1,3.1,62,0.00,,,0.00,meteobridge,2013-05-18 23:37:00,
2013-05-18 19:42:00,59.7,47.1,30.28,South,180,3.8,7.6,63,0.00,,,0.00,meteobridge,2013-05-18 23:42:00,
2013-05-18 19:48:00,59.4,46.8,30.28,South,180,2.2,3.1,63,0.00,,,0.00,meteobridge,2013-05-18 23:48:00,
2013-05-18 19:54:00,59.0,46.4,30.28,West,270,1.6,3.1,63,0.00,,,0.00,meteobridge,2013-05-18 23:54:00,
2013-05-18 19:59:00,58.8,46.6,30.28,South,180,3.1,3.1,64,0.00,,,0.00,meteobridge,2013-05-18 23:59:00,
2013-05-18 20:05:00,60.1,47.5,30.28,West,270,3.8,6.9,63,0.00,,,0.00,meteobridge,2013-05-19 00:05:00,
2013-05-18 20:10:00,61.3,48.2,30.28,North,0,1.6,2.2,62,0.00,,,0.00,meteobridge,2013-05-19 00:10:00,
2013-05-18 20:16:00,59.2,46.6,30.27,South,180,0.0,0.0,63,0.00,,,0.00,meteobridge,2013-05-19 00:16:00,
2013-05-18 20:22:00,57.6,45.9,30.27,South,180,0.0,0.0,65,0.00,,,0.00,meteobridge,2013-05-19 00:22:00,
2013-05-18 20:27:00,57.2,45.5,30.27,South,180,0.7,1.6,65,0.00,,,0.00,meteobridge,2013-05-19 00:27:00,
2013-05-18 20:33:00,57.4,46.0,30.27,South,180,1.6,4.5,66,0.00,,,0.00,meteobridge,2013-05-19 00:33:00,
2013-05-18 20:39:00,56.5,45.7,30.27,South,180,1.6,1.6,67,0.00,,,0.00,meteobridge,2013-05-19 00:39:00,
2013-05-18 20:44:00,57.0,46.2,30.27,South,180,0.0,0.0,67,0.00,,,0.00,meteobridge,2013-05-19 00:44:00,
2013-05-18 20:50:00,56.1,45.3,30.27,South,180,0.0,0.0,67,0.00,,,0.00,meteobridge,2013-05-19 00:50:00,
2013-05-18 20:56:00,55.8,45.0,30.27,South,180,0.0,0.0,67,0.00,,,0.00,meteobridge,2013-05-19 00:56:00,
2013-05-18 21:01:00,55.0,45.1,30.27,South,180,0.0,0.0,69,0.00,,,0.00,meteobridge,2013-05-19 01:01:00,
2013-05-18 21:07:00,54.9,45.3,30.27,South,180,0.0,0.0,70,0.00,,,0.00,meteobridge,2013-05-19 01:07:00,
2013-05-18 21:12:00,55.0,45.5,30.27,South,180,1.6,2.2,70,0.00,,,0.00,meteobridge,2013-05-19 01:12:00,
2013-05-18 21:18:00,55.8,45.3,30.27,South,180,0.7,0.7,68,0.00,,,0.00,meteobridge,2013-05-19 01:18:00,
2013-05-18 21:24:00,54.3,44.4,30.27,South,180,0.0,0.0,69,0.00,,,0.00,meteobridge,2013-05-19 01:24:00,
2013-05-18 21:29:00,54.0,44.4,30.27,South,180,0.0,0.0,70,0.00,,,0.00,meteobridge,2013-05-19 01:29:00,
2013-05-18 21:35:00,54.5,45.0,30.27,South,180,1.6,3.1,70,0.00,,,0.00,meteobridge,2013-05-19 01:35:00,
2013-05-18 21:41:00,54.1,44.6,30.28,South,180,0.0,0.7,70,0.00,,,0.00,meteobridge,2013-05-19 01:41:00,
2013-05-18 21:46:00,53.8,44.2,30.28,South,180,0.0,0.0,70,0.00,,,0.00,meteobridge,2013-05-19 01:46:00,
2013-05-18 21:52:00,53.4,44.6,30.28,South,180,0.0,0.0,72,0.00,,,0.00,meteobridge,2013-05-19 01:52:00,
2013-05-18 21:58:00,54.9,45.7,30.28,SW,225,2.2,2.2,71,0.00,,,0.00,meteobridge,2013-05-19 01:58:00,
2013-05-18 22:03:00,54.5,45.0,30.28,West,270,0.0,0.0,70,0.00,,,0.00,meteobridge,2013-05-19 02:03:00,
2013-05-18 22:09:00,54.7,44.8,30.28,South,180,0.7,2.2,69,0.00,,,0.00,meteobridge,2013-05-19 02:09:00,
2013-05-18 22:14:00,53.1,43.9,30.28,South,180,0.0,0.0,71,0.00,,,0.00,meteobridge,2013-05-19 02:14:00,
2013-05-18 22:20:00,52.7,43.9,30.29,South,180,0.0,0.0,72,0.00,,,0.00,meteobridge,2013-05-19 02:20:00,
2013-05-18 22:26:00,52.3,43.9,30.28,East,90,0.0,0.0,73,0.00,,,0.00,meteobridge,2013-05-19 02:26:00,
2013-05-18 22:31:00,52.0,43.5,30.28,East,90,0.0,0.0,73,0.00,,,0.00,meteobridge,2013-05-19 02:31:00,
2013-05-18 22:37:00,52.2,43.7,30.28,South,180,1.6,1.6,73,0.00,,,0.00,meteobridge,2013-05-19 02:37:00,
2013-05-18 22:43:00,52.3,43.9,30.28,South,180,0.0,0.0,73,0.00,,,0.00,meteobridge,2013-05-19 02:43:00,
2013-05-18 22:48:00,52.5,44.4,30.28,South,180,0.0,0.0,74,0.00,,,0.00,meteobridge,2013-05-19 02:48:00,
2013-05-18 22:54:00,52.3,44.2,30.28,South,180,0.0,0.0,74,0.00,,,0.00,meteobridge,2013-05-19 02:54:00,
2013-05-18 23:00:00,52.0,43.9,30.28,South,180,0.0,0.0,74,0.00,,,0.00,meteobridge,2013-05-19 03:00:00,
2013-05-18 23:05:00,52.3,44.2,30.28,South,180,0.0,0.0,74,0.00,,,0.00,meteobridge,2013-05-19 03:05:00,
2013-05-18 23:11:00,52.2,44.1,30.28,South,180,0.0,0.0,74,0.00,,,0.00,meteobridge,2013-05-19 03:11:00,
2013-05-18 23:17:00,52.2,44.1,30.28,South,180,0.0,0.0,74,0.00,,,0.00,meteobridge,2013-05-19 03:17:00,
2013-05-18 23:22:00,52.3,44.6,30.28,South,180,0.0,0.0,75,0.00,,,0.00,meteobridge,2013-05-19 03:22:00,
2013-05-18 23:28:00,52.0,44.2,30.28,South,180,0.0,0.0,75,0.00,,,0.00,meteobridge,2013-05-19 03:28:00,
2013-05-18 23:33:00,51.8,44.1,30.28,South,180,0.0,0.0,75,0.00,,,0.00,meteobridge,2013-05-19 03:33:00,
2013-05-18 23:39:00,52.0,44.2,30.27,South,180,0.0,0.0,75,0.00,,,0.00,meteobridge,2013-05-19 03:39:00,
2013-05-18 23:45:00,52.2,44.4,30.28,North,0,0.0,0.0,75,0.00,,,0.00,meteobridge,2013-05-19 03:45:00,
2013-05-18 23:50:00,52.2,44.4,30.28,North,0,0.0,0.0,75,0.00,,,0.00,meteobridge,2013-05-19 03:50:00,
2013-05-18 23:56:00,52.3,44.6,30.28,North,0,0.0,0.0,75,0.00,,,0.00,meteobridge,2013-05-19 03:56:00,